Cheboygan, MI

4:26 PM EST on January 22, 2018 (GMT -0500)
Cheboygan

Weather History for KSLH - December, 2012

Change the Weather History Date:

Friday, December 28, 2012

  Actual Average (KMCD) Record (KMCD)
Temperature  
Mean Temperature 16 °F -  
Max Temperature 22 °F 26 °F 46 °F (2008)
Min Temperature 11 °F 16 °F -2 °F (2017)
Degree Days  
Heating Degree Days 48    
Moisture  
Dew Point 16 °F    
Average Humidity 88    
Maximum Humidity 94    
Minimum Humidity 79    
Precipitation  
Precipitation 0.00 in - - ()
Sea Level Pressure  
Sea Level Pressure 30.08 in    
Wind  
Wind Speed 1 mph (WNW)    
Max Wind Speed 6 mph    
Max Gust Speed -    
Visibility 10 miles    
Events      
Averages and records for this station are not official NWS values.
T = Trace of Precipitation, MM = Missing Value Source: NWS Daily Summary

Daily Weather History Graph

Daily Weather History Graph

Search for Another Location

Airport or City:

Trip Planner

Search our weather history database for the weather conditions in past years. The results will help you decide how hot, cold, wet, or windy it might be!

Date:

Astronomy

Dec. 28, 2012 Rise Set
Actual Time 8:18 AM EST 5:01 PM EST
Civil Twilight 7:44 AM EST 5:35 PM EST
Nautical Twilight 7:06 AM EST 6:13 PM EST
Astronomical Twilight 6:30 AM EST 6:49 PM EST
Moon 5:40 PM EST (12/28) 8:09 AM EST (12/28)
Length of Visible Light 9h 51m
Length of Day
8h 43m
Full, 100% of the Moon is Illuminated
Dec 28
Full
Jan 4
Last Quarter
Jan 11
New
Jan 18
First Quarter
Jan 26
Full

Hourly Weather History & Observations

Time (EST) Temp. Windchill Dew Point Humidity Pressure Visibility Wind Dir Wind Speed Gust Speed Precip Events Conditions
12:35 AM 16.7 °F - 14.7 °F 92% 30.11 in 10.0 mi Calm Calm - N/A   Clear
12:55 AM 17.2 °F - 15.6 °F 93% 30.11 in 10.0 mi Calm Calm - N/A   Scattered Clouds
1:16 AM 17.2 °F - 15.4 °F 93% 30.10 in 10.0 mi Calm Calm - N/A   Scattered Clouds
1:35 AM 16.7 °F - 15.1 °F 93% 30.11 in 10.0 mi Calm Calm - N/A   Clear
1:55 AM 16.5 °F - 14.5 °F 92% 30.11 in 10.0 mi Calm Calm - N/A   Mostly Cloudy
2:16 AM 16.9 °F 11.5 °F 15.1 °F 93% 30.12 in 10.0 mi WSW 3.5 mph - N/A   Scattered Clouds
2:35 AM 17.4 °F - 15.4 °F 92% 30.12 in 10.0 mi Calm Calm - N/A   Mostly Cloudy
2:55 AM 17.4 °F 12.1 °F 15.3 °F 91% 30.12 in 10.0 mi WSW 3.5 mph - N/A   Overcast
3:15 AM 16.7 °F - 14.7 °F 92% 30.13 in 10.0 mi Calm Calm - N/A   Mostly Cloudy
3:35 AM 16.2 °F - 14.2 °F 92% 30.13 in 10.0 mi Calm Calm - N/A   Scattered Clouds
3:56 AM 15.8 °F - 14.0 °F 93% 30.13 in 10.0 mi Calm Calm - N/A   Clear
4:15 AM 14.9 °F - 13.5 °F 94% 30.12 in 10.0 mi Calm Calm - N/A   Clear
4:35 AM 14.0 °F 8.2 °F 12.4 °F 93% 30.13 in 10.0 mi WSW 3.5 mph - N/A   Clear
4:55 AM 13.5 °F 7.5 °F 12.0 °F 94% 30.12 in 10.0 mi SW 3.5 mph - N/A   Clear
5:15 AM 12.0 °F - 10.4 °F 93% 30.12 in 10.0 mi Calm Calm - N/A   Clear
5:35 AM 13.5 °F 5.8 °F 12.0 °F 94% 30.12 in 10.0 mi West 4.6 mph - N/A   Mostly Cloudy
5:55 AM 13.1 °F - 10.8 °F 90% 30.12 in 10.0 mi Calm Calm - N/A   Overcast
6:15 AM 12.2 °F - 10.2 °F 92% 30.12 in 10.0 mi Calm Calm - N/A   Overcast
6:36 AM 12.4 °F - 10.8 °F 93% 30.12 in 10.0 mi Calm Calm - N/A   Overcast
6:55 AM 11.8 °F - 9.7 °F 91% 30.12 in 10.0 mi Calm Calm - N/A   Overcast
7:15 AM 14.7 °F - 12.9 °F 93% 30.12 in 10.0 mi Calm Calm - N/A   Overcast
7:35 AM 14.5 °F - 12.4 °F 91% 30.11 in 10.0 mi Calm Calm - N/A   Overcast
7:55 AM 16.7 °F - 14.5 °F 91% 30.11 in 10.0 mi Calm Calm - N/A   Overcast
8:15 AM 17.6 °F - 15.3 °F 91% 30.12 in 10.0 mi Calm Calm - N/A   Overcast
8:55 AM 16.0 °F - 13.5 °F 90% 30.12 in 10.0 mi Calm Calm - N/A   Overcast
9:15 AM 16.7 °F 11.2 °F 14.4 °F 91% 30.12 in 10.0 mi West 3.5 mph - N/A   Overcast
9:35 AM 19.2 °F 11.3 °F 16.5 °F 89% 30.12 in 10.0 mi West 5.8 mph - N/A   Overcast
9:55 AM 19.4 °F 12.8 °F 16.7 °F 89% 30.12 in 10.0 mi WNW 4.6 mph - N/A   Overcast
10:16 AM 21.0 °F 16.2 °F 17.8 °F 87% 30.12 in 10.0 mi WNW 3.5 mph - N/A   Overcast
10:35 AM 21.2 °F 16.4 °F 17.8 °F 87% 30.13 in 10.0 mi West 3.5 mph - N/A   Overcast
10:55 AM 21.9 °F - 17.8 °F 84% 30.13 in 10.0 mi Calm Calm - N/A   Overcast
11:16 AM 21.7 °F - 17.8 °F 85% 30.13 in 10.0 mi Calm Calm - N/A   Overcast
11:35 AM 21.6 °F - 17.1 °F 83% 30.12 in 10.0 mi Calm Calm - N/A   Overcast
11:55 AM 21.6 °F - 16.9 °F 82% 30.11 in 10.0 mi Calm Calm - N/A   Overcast
12:15 PM 22.1 °F 17.4 °F 17.2 °F 82% 30.11 in 10.0 mi NW 3.5 mph - N/A   Overcast
12:35 PM 21.9 °F 17.2 °F 17.1 °F 82% 30.10 in 10.0 mi WNW 3.5 mph - N/A   Overcast
12:55 PM 22.1 °F - 17.2 °F 82% 30.10 in 10.0 mi Calm Calm - N/A   Overcast
1:15 PM 22.3 °F - 17.1 °F 80% 30.08 in 10.0 mi Calm Calm - N/A   Overcast
1:35 PM 21.9 °F - 16.7 °F 80% 30.08 in 10.0 mi Calm Calm - N/A   Overcast
1:55 PM 22.1 °F - 16.7 °F 80% 30.07 in 10.0 mi Calm Calm - N/A   Overcast
2:15 PM 22.3 °F - 16.7 °F 79% 30.06 in 10.0 mi Calm Calm - N/A   Overcast
2:35 PM 22.5 °F - 16.7 °F 79% 30.05 in 10.0 mi Calm Calm - N/A   Overcast
2:55 PM 22.6 °F - 17.2 °F 80% 30.05 in 10.0 mi Calm Calm - N/A   Overcast
3:15 PM 22.8 °F - 17.6 °F 80% 30.05 in 10.0 mi Calm Calm - N/A   Overcast
3:35 PM 22.5 °F 17.8 °F 18.5 °F 85% 30.05 in 10.0 mi North 3.5 mph - N/A   Overcast
3:55 PM 22.3 °F - 18.0 °F 83% 30.05 in 10.0 mi Calm Calm - N/A   Overcast
4:15 PM 22.5 °F - 18.0 °F 83% 30.03 in 10.0 mi Calm Calm - N/A   Overcast
4:35 PM 22.1 °F - 18.1 °F 85% 30.03 in 10.0 mi Calm Calm - N/A   Overcast
4:55 PM 22.1 °F 17.4 °F 18.1 °F 85% 30.03 in 10.0 mi North 3.5 mph - N/A   Overcast
5:15 PM 22.1 °F - 18.1 °F 85% 30.03 in 10.0 mi Calm Calm - N/A   Overcast
5:35 PM 22.3 °F - 18.0 °F 83% 30.04 in 10.0 mi Calm Calm - N/A   Overcast
5:55 PM 22.5 °F 17.8 °F 18.3 °F 84% 30.03 in 10.0 mi NNE 3.5 mph - N/A   Overcast
6:15 PM 22.5 °F - 18.5 °F 85% 30.04 in 10.0 mi Calm Calm - N/A   Overcast
6:35 PM 22.6 °F - 18.5 °F 84% 30.05 in 10.0 mi Calm Calm - N/A   Overcast
6:55 PM 22.5 °F 17.8 °F 18.3 °F 84% 30.05 in 10.0 mi NW 3.5 mph - N/A   Overcast
7:14 PM 22.6 °F - 18.3 °F 83% 30.06 in 10.0 mi Calm Calm - N/A   Overcast
7:35 PM 22.6 °F - 18.5 °F 84% 30.05 in 10.0 mi Calm Calm - N/A   Overcast
7:55 PM 22.1 °F - 18.3 °F 85% 30.05 in 10.0 mi Calm Calm - N/A   Overcast
8:15 PM 21.2 °F - 17.6 °F 86% 30.05 in 10.0 mi Calm Calm - N/A   Overcast
8:35 PM 20.7 °F - 17.6 °F 88% 30.04 in 10.0 mi Calm Calm - N/A   Overcast
8:55 PM 19.8 °F - 17.2 °F 90% 30.03 in 10.0 mi Calm Calm - N/A   Overcast
9:15 PM 18.5 °F 13.3 °F 16.7 °F 93% 30.03 in 10.0 mi WNW 3.5 mph - N/A   Overcast
9:35 PM 19.4 °F 14.3 °F 17.2 °F 91% 30.02 in 10.0 mi WNW 3.5 mph - N/A   Overcast
9:55 PM 19.9 °F - 16.9 °F 88% 30.02 in 10.0 mi Calm Calm - N/A   Overcast
10:15 PM 20.3 °F - 17.1 °F 87% 30.02 in 10.0 mi Calm Calm - N/A   Overcast
10:35 PM 20.7 °F - 17.4 °F 87% 30.02 in 10.0 mi Calm Calm - N/A   Overcast
10:55 PM 20.3 °F - 17.6 °F 89% 30.02 in 10.0 mi Calm Calm - N/A   Overcast
11:15 PM 19.9 °F - 17.4 °F 90% 30.01 in 10.0 mi Calm Calm - N/A   Overcast
11:35 PM 19.9 °F - 17.6 °F 91% 30.01 in 10.0 mi Calm Calm - N/A   Overcast
11:55 PM 19.2 °F - 17.2 °F 92% 29.99 in 10.0 mi Calm Calm - N/A   Mostly Cloudy